FORMOSAT 7-2 (44351 NORAD) Tracking and Keplerian Element Data

This shows tracking and keplerian element data for the satellite.

Feedback or suggestion? Click here.




ElementValue
Catalog44351
NameFORMOSAT 7-2
Epoch Orbit368
Epoch Day201.80234145
Epoch Year2019
RAAN44.1675
Inclination24.0025
Eccentricity0.0013277
Argument of Perigee115.4864
Mean Anonmoly244.7034
Mean Motion14.53279851
Decay Rate3.23E-06
L11 44351U 19036N 19201.80234145 .00000323 00000-0 26185-4 0 9990
L22 44351 24.0025 44.1675 0013277 115.4864 244.7034 14.53279851 3684

Live tracking and technical data element details for FORMOSAT 7-2 (NORAD 44351). FORMOSAT 7-2 can be tracked NOW for your location showing map with azimuth and elevation plus other details from your city location.

Track the satellite on the map from your city or location and see movement details for azimuth, elevation, latitude, longitude, range, height, and movement on the map or in text.







IsCatalogInMostPopularTable: catalog: 44351, numindb: 6
Update: records affected: 1



GetName: 44351 FORMOSAT 7-2

Hit Count: updated at: Sun, 21 Jul 2019 21:39:00 GMT